Location: Hains Lake
(37.8540°N, 99.8578°W)
Time: 03:16:05
(UTC+00:00)

Meteor 1-19 Rocket - Pass Details

Date: 11 December 2019
Orbit: 816 x 918 km, 81.2° (Epoch: 26 January)

Event Time Altitude Azimuth Distance (km) Brightness Sun altitude
Rises 12:47:11 0° 344° (NNW) 3,374 7.0 -11.2°
Reaches altitude 10° 12:49:38 10° 339° (NNW) 2,447 6.2 -10.7°
Maximum altitude 12:54:55 48° 266° (W) 1,102 4.5 -9.7°
Drops below altitude 10° 13:00:18 10° 194° (SSW) 2,492 6.8 -8.7°
Sets 13:02:50 0° 189° (S) 3,442 7.6 -8.3°
